Hourly Weather Rudnya

Today, 22 April, Thursday

Time Temperature Precipitation Wind Pressure Humidity
00:00 +5°C° 0 mm 2 mps 741 mmHg 93%
01:00 +5°C° 0 mm 2 mps 741 mmHg 94%
02:00 +5°C° 0 mm 2 mps 741 mmHg 94%
03:00 +4°C° 0 mm 2 mps 741 mmHg 94%
04:00 +4°C° 0 mm 2 mps 741 mmHg 94%
05:00 +4°C° 0 mm 2 mps 742 mmHg 94%
06:00 +6°C° 0 mm 2 mps 742 mmHg 86%
07:00 +7°C° 0 mm 3 mps 742 mmHg 79%
08:00 +9°C° 0 mm 3 mps 743 mmHg 72%
09:00 +10°C° 0 mm 3 mps 743 mmHg 63%
10:00 +12°C° 0 mm 3 mps 743 mmHg 55%
11:00 +13°C° 0 mm 3 mps 743 mmHg 47%
12:00 +14°C° 0 mm 3 mps 743 mmHg 46%
13:00 +14°C° 0 mm 4 mps 742 mmHg 45%
14:00 +15°C° 0 mm 4 mps 742 mmHg 45%
15:00 +14°C° 0.4 mm 4 mps 742 mmHg 51%
16:00 +13°C° 0.4 mm 4 mps 742 mmHg 58%
17:00 +12°C° 0.4 mm 4 mps 742 mmHg 65%
18:00 +11°C° 0.3 mm 3 mps 742 mmHg 74%
19:00 +9°C° 0.3 mm 3 mps 742 mmHg 83%
20:00 +7°C° 0.3 mm 2 mps 743 mmHg 91%
21:00 +7°C° 0 mm 2 mps 743 mmHg 90%
22:00 +6°C° 0 mm 2 mps 742 mmHg 88%
23:00 +6°C° 0 mm 2 mps 742 mmHg 86%

Tomorrow, 23 April, Friday

Time Temperature Precipitation Wind Pressure Humidity
00:00 +6°C° 0.1 mm 2 mps 742 mmHg 87%
01:00 +5°C° 0.1 mm 2 mps 742 mmHg 87%
02:00 +5°C° 0.1 mm 2 mps 742 mmHg 88%
03:00 +5°C° 0 mm 2 mps 742 mmHg 88%
04:00 +4°C° 0 mm 2 mps 742 mmHg 88%
05:00 +3°C° 0 mm 3 mps 742 mmHg 88%
06:00 +3°C° 0 mm 3 mps 743 mmHg 81%
07:00 +4°C° 0 mm 4 mps 743 mmHg 74%
08:00 +4°C° 0 mm 4 mps 743 mmHg 68%
09:00 +3°C° 0 mm 5 mps 743 mmHg 65%
10:00 +5°C° 0 mm 5 mps 744 mmHg 63%
11:00 +5°C° 0 mm 5 mps 744 mmHg 60%
12:00 +5°C° 0.1 mm 5 mps 744 mmHg 57%
13:00 +6°C° 0.1 mm 5 mps 744 mmHg 54%
14:00 +6°C° 0.1 mm 5 mps 744 mmHg 52%
15:00 +6°C° 0.1 mm 5 mps 744 mmHg 55%
16:00 +6°C° 0.1 mm 4 mps 744 mmHg 59%
17:00 +5°C° 0.1 mm 4 mps 744 mmHg 62%
18:00 +4°C° 0 mm 3 mps 744 mmHg 70%
19:00 +3°C° 0 mm 3 mps 744 mmHg 77%
20:00 +2°C° 0 mm 2 mps 745 mmHg 84%
21:00 +2°C° 0 mm 2 mps 744 mmHg 87%
22:00 +1°C° 0 mm 2 mps 744 mmHg 90%
23:00 +1°C° 0 mm 1 mps 744 mmHg 93%

Day after tomorrow, 24 April, Saturday

Time Temperature Precipitation Wind Pressure Humidity
00:00 -1°C° 0 mm 2 mps 744 mmHg 93%
01:00 -1°C° 0 mm 2 mps 744 mmHg 94%
02:00 -2°C° 0 mm 2 mps 744 mmHg 95%
03:00 0°C° 0 mm 1 mps 744 mmHg 93%
04:00 0°C° 0 mm 1 mps 744 mmHg 92%
05:00 0°C° 0 mm 1 mps 744 mmHg 91%
06:00 -1°C° 0 mm 2 mps 744 mmHg 82%
07:00 +1°C° 0 mm 3 mps 744 mmHg 73%
08:00 +2°C° 0 mm 3 mps 744 mmHg 64%
09:00 +1°C° 0 mm 4 mps 743 mmHg 62%
10:00 +3°C° 0 mm 4 mps 743 mmHg 60%
11:00 +2°C° 0 mm 5 mps 743 mmHg 58%
12:00 +2°C° 0.2 mm 5 mps 743 mmHg 61%
13:00 +3°C° 0.2 mm 5 mps 743 mmHg 63%
14:00 +3°C° 0.2 mm 5 mps 743 mmHg 65%
15:00 +3°C° 0.2 mm 5 mps 743 mmHg 68%
16:00 +3°C° 0.2 mm 4 mps 743 mmHg 70%
17:00 +3°C° 0.2 mm 4 mps 743 mmHg 72%
18:00 +2°C° 0 mm 3 mps 743 mmHg 75%
19:00 +2°C° 0 mm 3 mps 743 mmHg 78%
20:00 +2°C° 0 mm 2 mps 743 mmHg 81%
21:00 +1°C° 0 mm 3 mps 743 mmHg 82%
22:00 0°C° 0 mm 3 mps 743 mmHg 84%
23:00 0°C° 0 mm 3 mps 743 mmHg 85%

25 April, Sunday

Time Temperature Precipitation Wind Pressure Humidity
00:00 -1°C° 0 mm 4 mps 742 mmHg 87%
01:00 -2°C° 0 mm 4 mps 742 mmHg 88%
02:00 -2°C° 0 mm 4 mps 742 mmHg 89%
03:00 -2°C° 0.3 mm 4 mps 742 mmHg 91%
04:00 -2°C° 0.3 mm 4 mps 742 mmHg 93%
05:00 -2°C° 0.3 mm 4 mps 742 mmHg 96%
06:00 -1°C° 0.2 mm 4 mps 742 mmHg 93%
07:00 -1°C° 0.2 mm 4 mps 742 mmHg 90%
08:00 -1°C° 0.2 mm 4 mps 742 mmHg 87%
09:00 0°C° 0.1 mm 4 mps 743 mmHg 82%
10:00 +1°C° 0.1 mm 4 mps 743 mmHg 77%
11:00 +1°C° 0.1 mm 4 mps 743 mmHg 72%
12:00 +1°C° 0.2 mm 4 mps 743 mmHg 72%
13:00 +3°C° 0.2 mm 4 mps 743 mmHg 73%
14:00 +3°C° 0.2 mm 4 mps 743 mmHg 73%
15:00 +3°C° 0.3 mm 4 mps 743 mmHg 73%
16:00 +3°C° 0.3 mm 4 mps 743 mmHg 73%
17:00 +3°C° 0.3 mm 3 mps 743 mmHg 72%
18:00 +2°C° 0.1 mm 3 mps 743 mmHg 78%
19:00 +1°C° 0.1 mm 3 mps 744 mmHg 83%
20:00 +1°C° 0.1 mm 2 mps 744 mmHg 88%
21:00 +1°C° 0 mm 2 mps 744 mmHg 90%
22:00 +1°C° 0 mm 2 mps 744 mmHg 92%
23:00 +1°C° 0 mm 2 mps 744 mmHg 95%

26 April, Monday

Time Temperature Precipitation Wind Pressure Humidity
00:00 0°C° 0 mm 3 mps 744 mmHg 94%
01:00 0°C° 0 mm 3 mps 744 mmHg 94%
02:00 -1°C° 0 mm 3 mps 744 mmHg 94%
03:00 -1°C° 0 mm 3 mps 744 mmHg 93%
04:00 -1°C° 0 mm 2 mps 744 mmHg 92%
05:00 -1°C° 0 mm 2 mps 744 mmHg 91%
06:00 0°C° 0 mm 3 mps 745 mmHg 86%
07:00 0°C° 0 mm 3 mps 745 mmHg 82%
08:00 +1°C° 0 mm 3 mps 745 mmHg 77%
09:00 +2°C° 0 mm 2 mps 745 mmHg 75%
10:00 +2°C° 0 mm 2 mps 745 mmHg 72%
11:00 +2°C° 0 mm 2 mps 745 mmHg 70%
12:00 +3°C° 0.1 mm 2 mps 745 mmHg 67%
13:00 +4°C° 0.1 mm 2 mps 745 mmHg 64%
14:00 +4°C° 0.1 mm 2 mps 745 mmHg 61%
15:00 +5°C° 0.1 mm 2 mps 745 mmHg 60%
16:00 +5°C° 0.1 mm 2 mps 745 mmHg 58%
17:00 +6°C° 0.1 mm 1 mps 745 mmHg 57%
18:00 +5°C° 0 mm 1 mps 745 mmHg 64%
19:00 +4°C° 0 mm 1 mps 745 mmHg 71%
20:00 +1°C° 0 mm 0 mps 745 mmHg 78%
21:00 +1°C° 0 mm 0 mps 745 mmHg 79%
22:00 +2°C° 0 mm 1 mps 745 mmHg 81%
23:00 +2°C° 0 mm 1 mps 745 mmHg 82%

27 April, Tuesday

Time Temperature Precipitation Wind Pressure Humidity
00:00 +1°C° 0 mm 1 mps 744 mmHg 83%
01:00 +1°C° 0 mm 1 mps 744 mmHg 85%
02:00 +1°C° 0 mm 1 mps 744 mmHg 86%
03:00 -1°C° 0 mm 2 mps 744 mmHg 87%
04:00 -1°C° 0 mm 2 mps 744 mmHg 89%
05:00 -1°C° 0 mm 2 mps 744 mmHg 91%
06:00 +1°C° 0 mm 2 mps 744 mmHg 85%
07:00 +1°C° 0 mm 3 mps 744 mmHg 79%
08:00 +3°C° 0 mm 3 mps 744 mmHg 73%
09:00 +3°C° 0 mm 3 mps 744 mmHg 69%
10:00 +4°C° 0 mm 3 mps 744 mmHg 65%
11:00 +5°C° 0 mm 4 mps 744 mmHg 61%
12:00 +4°C° 0.1 mm 4 mps 744 mmHg 64%
13:00 +4°C° 0.1 mm 4 mps 744 mmHg 68%
14:00 +4°C° 0.1 mm 4 mps 744 mmHg 72%
15:00 +4°C° 0.1 mm 4 mps 745 mmHg 75%
16:00 +4°C° 0.1 mm 3 mps 745 mmHg 78%
17:00 +3°C° 0.1 mm 3 mps 745 mmHg 81%
18:00 +3°C° 0 mm 3 mps 745 mmHg 83%
19:00 +3°C° 0 mm 2 mps 746 mmHg 86%
20:00 +3°C° 0 mm 2 mps 746 mmHg 89%
21:00 +4°C° 0 mm 1 mps 746 mmHg 90%
22:00 +3°C° 0 mm 1 mps 746 mmHg 91%
23:00 +3°C° 0 mm 1 mps 746 mmHg 93%
Show more